CAPE
0 0 0 0 6 26 0 0 0 0 0 0 0 1 1 4 5 31 32 1 0 0 0 0 0 0 0 0 0 0 0 0
0 0 0 0 0 9 1 0 0 0 1 0 5 2 2 3 1 1 16 6 0 0 0 0 0 0 0 0 0 0 0 0
0 0 0 26 50 16 0 0 0 0 0 0 0 4 1 0 1 3 4 0 0 0 0 0 0 0 0 0 0 0 0 0
0 0 11 84 94 15 0 1 1 0 0 0 0 0 1 1 4 4 1 0 0 0 0 0 0 0 0 0 0 0 0 0
0 0 55 92 111 12 0 0 0 0 0 0 1 0 1 0 0 1 0 2 0 0 0 0 0 0 0 0 0 0 0 0
0 0 42 89 54 1 0 0 0 1 0 0 0 0 0 1 1 1 1 0 1 1 0 0 0 0 0 1 0 2 0 0
0 0 2 49 17 1 0 0 0 0 0 0 0 0 0 1 1 1 1 0 2 1 1 0 0 0 0 0 0 4 8 2
0 0 0 4 7 0 0 0 0 0 0 0 0 0 0 0 0 1 1 1 0 1 1 1 0 0 0 0 0 0 1 7
0 0 0 1 2 0 0 0 0 1 0 0 0 0 0 0 0 0 0 0 0 0 0 0 0 0 0 0 0 0 0 0
0 0 0 0 0 0 0 0 0 0 1 0 0 1 0 0 0 0 0 0 0 0 0 0 0 0 0 0 0 0 1 0
0 0 0 0 0 0 0 0 0 0 0 1 2 2 0 0 0 0 0 0 0 0 0 0 0 0 0 0 0 0 1 2
0 0 0 0 0 0 1 0 0 0 0 0 0 2 0 0 0 0 0 0 0 0 0 0 0 0 0 0 0 0 0 0
0 0 0 0 1 1 2 2 0 1 0 0 0 0 0 2 2 0 0 0 0 0 0 0 0 0 0 0 0 0 0 0
1 0 3 1 1 0 0 0 0 0 0 0 1 0 0 1 5 3 2 0 0 0 0 0 0 0 0 0 0 0 0 0
3 1 2 3 2 2 3 3 3 0 0 1 1 0 0 0 0 3 3 2 1 0 0 0 0 0 0 0 0 0 0 0
1 1 2 3 5 7 7 5 1 5 5 3 1 0 0 0 0 0 0 1 0 0 0 0 0 0 0 0 0 0 0 0
0 0 0 1 2 3 1 0 0 0 0 0 0 0 0 1 0 0 0 0 0 0 0 0 0 0 0 0 0 0 0 0
2 0 0 1 1 1 1 0 0 0 0 0 0 0 0 0 0 0 1 2 1 1 0 0 0 0 0 0 0 0 0 0
3 1 0 0 0 0 0 0 0 0 0 0 0 0 0 0 0 0 0 1 1 5 2 2 1 0 1 1 0 0 0 0
CIN
-0 -0 -0 -0 -626 -494 -0 -0 -0 -0 -0 -0 -0 -0 -3 -15 -8 -0 -2 -0 -0 -0 -0 -0 -0 -0 -0 -0 -0 -0 -0 -0
-0 -0 -0 -0 -0 -515 -0 -0 -0 -0 -0 -0 -0 -1 -1 -0 -3 -2 -4 -42 -0 -0 -0 -0 -0 -0 -0 -0 -0 -0 -0 -0
-0 -0 -0 -703 -562 -535 -1 -0 -0 -0 -0 -0 -0 -1 -0 -1 -4 -6 -2 -0 -0 -0 -0 -0 -0 -0 -0 -0 -0 -0 -0 -0
-0 -0 -729 -622 -568 -567 -1 -0 -0 -0 -0 -0 -6 -0 -0 -0 -2 -0 -0 -0 -0 -0 -0 -0 -0 -0 -0 -0 -0 -0 -0 -0
-0 -0 -651 -602 -597 -587 -0 -1 -0 -0 -0 -0 -1 -1 -1 -0 -0 -0 -0 -0 -0 -0 -0 -0 -0 -0 -0 -0 -0 -0 -0 -0
-0 -0 -776 -670 -498 -170 -0 -1 -1 -0 -1 -0 -0 -0 -0 -21 -0 -0 -0 -0 -0 -0 -0 -0 -0 -0 -0 -90 -0 -145 -0 -0
-0 -0 -449 -638 -565 -0 -0 -0 -0 -0 -0 -0 -0 -0 -0 -10 -5 -0 -0 -0 -0 -0 -0 -0 -0 -0 -0 -0 -0 -168 -184 -143
-0 -0 -0 -733 -631 -0 -0 -0 -0 -0 -0 -0 -0 -0 -0 -0 -0 -8 -0 -0 -0 -0 -0 -0 -1 -0 -0 -0 -0 -0 -61 -157
-0 -0 -0 -841 -393 -0 -0 -0 -0 -0 -1 -0 -0 -0 -0 -0 -0 -0 -1 -0 -0 -0 -0 -0 -0 -0 -0 -0 -0 -17 -9 -0
-0 -0 -0 -0 -0 -0 -0 -0 -0 -0 -0 -0 -0 -0 -0 -0 -0 -0 -0 -0 -0 -0 -0 -0 -0 -0 -0 -0 -0 -0 -137 -0
-0 -0 -0 -0 -0 -0 -0 -0 -0 -0 -0 -1 -3 -1 -0 -0 -1 -0 -0 -0 -0 -0 -0 -0 -0 -0 -0 -0 -0 -0 -52 -87
-0 -0 -0 -0 -0 -0 -0 -0 -0 -0 -0 -0 -3 -3 -0 -18 -0 -0 -0 -0 -0 -0 -0 -0 -0 -0 -0 -0 -0 -0 -0 -0
-0 -0 -0 -0 -0 -0 -0 -0 -0 -1 -0 -0 -2 -0 -0 -24 -33 -0 -0 -0 -0 -0 -0 -0 -0 -0 -0 -0 -0 -0 -0 -0
-0 -0 -0 -0 -0 -0 -0 -0 -0 -1 -0 -1 -0 -0 -0 -5 -27 -32 -46 -43 -2 -0 -0 -0 -0 -0 -0 -0 -0 -0 -0 -0
-0 -0 -0 -0 -0 -0 -0 -0 -0 -0 -0 -0 -0 -0 -0 -0 -0 -27 -27 -32 -32 -18 -0 -0 -0 -0 -0 -0 -0 -0 -0 -0
-0 -0 -0 -0 -0 -0 -0 -0 -0 -0 -0 -0 -0 -0 -0 -0 -0 -0 -6 -17 -5 -6 -8 -0 -0 -0 -0 -0 -0 -0 -0 -0
-0 -0 -0 -0 -0 -0 -0 -0 -0 -0 -0 -0 -0 -0 -0 -0 -0 -0 -0 -0 -0 -0 -0 -0 -0 -0 -0 -0 -0 -0 -0 -0
-0 -0 -0 -0 -0 -0 -0 -0 -0 -0 -0 -0 -0 -0 -0 -0 -0 -0 -0 -0 -0 -0 -0 -0 -0 -0 -0 -0 -0 -0 -0 -0
-0 -0 -0 -0 -0 -0 -0 -0 -0 -0 -0 -0 -0 -0 -0 -0 -0 -0 -0 -0 -0 -0 -0 -0 -0 -0 -0 -0 -0 -0 -0 -0
Wind_Speed
11 13 12 12 12 13 13 8 9 7 5 5 3 3 3 5 6 5 8 7 10 9 8 9 8 8 7 8 9 4 8 9
10 9 12 13 12 14 13 12 11 8 6 5 3 4 3 3 3 5 11 8 9 10 8 9 8 10 9 9 6 9 4 8
5 9 13 16 16 14 13 13 12 9 7 6 3 4 2 3 3 6 8 13 12 10 10 8 9 9 10 9 8 4 3 7
8 12 15 16 18 18 15 15 13 10 9 6 3 4 3 2 4 4 4 12 14 13 11 8 7 6 8 8 6 6 7 4
8 12 15 17 18 15 15 14 14 10 13 9 9 7 4 2 2 4 6 10 13 14 13 12 10 5 6 8 7 4 6 8
14 17 19 16 15 14 14 14 14 13 12 13 11 8 4 6 4 7 5 5 13 12 15 14 12 8 7 10 9 6 5 7
13 14 10 13 15 13 13 16 16 13 12 12 13 10 8 7 6 6 6 5 5 12 12 13 12 10 8 6 6 8 7 5
10 15 16 19 19 18 15 18 17 14 13 12 13 10 11 11 8 6 7 7 4 9 13 13 12 13 11 8 7 7 8 6
10 16 18 20 21 20 19 16 15 15 13 12 12 8 7 7 8 6 7 8 7 9 10 12 14 14 13 10 8 7 6 8
11 15 17 18 21 23 20 18 14 14 14 10 10 10 7 7 7 6 6 4 7 8 9 10 11 12 12 12 9 9 7 7
13 14 14 13 13 16 14 15 14 11 10 10 8 9 7 8 8 9 8 5 6 8 9 8 8 10 11 11 9 8 10 9
7 10 10 11 12 14 11 13 13 12 10 9 8 8 8 7 8 7 7 7 7 8 9 10 9 9 10 9 10 10 12 13
14 12 12 11 11 11 10 9 12 9 9 9 9 10 8 6 6 7 8 9 8 9 8 9 10 10 9 11 11 10 12 13
17 17 12 11 11 11 9 8 8 9 9 9 9 10 8 7 9 7 7 7 8 9 10 10 10 11 12 12 13 12 12 13
17 16 17 15 15 13 10 9 3 8 7 7 7 7 8 8 6 9 8 9 9 9 9 11 12 12 12 12 12 13 13 12
18 17 17 16 16 14 12 11 10 5 6 7 8 7 6 6 6 7 8 8 8 9 10 11 11 12 11 14 14 15 15 16
16 16 17 16 18 15 13 13 11 13 12 11 10 12 7 3 4 8 9 11 12 12 12 12 12 10 13 17 16 14 15 16
15 15 14 16 20 15 13 11 13 13 12 12 12 11 10 10 9 9 10 8 5 11 13 13 15 15 14 16 18 15 14 14
13 12 12 15 12 9 7 11 13 11 13 13 12 11 11 11 10 10 9 8 7 6 8 9 11 11 9 10 19 17 17 18
Wind_Direction
237 223 191 171 169 171 175 159 153 139 141 181 139 158 150 175 171 171 147 119 118 115 117 128 143 143 148 150 153 133 150 144
231 197 166 153 165 169 172 161 164 156 160 166 179 177 165 192 146 166 152 140 136 126 126 140 152 149 152 143 137 136 106 129
205 164 171 172 172 173 172 175 162 167 168 185 154 133 160 120 142 176 174 152 153 142 139 146 148 139 151 159 154 124 104 164
196 181 182 175 179 180 176 177 167 171 168 169 120 96 100 113 155 165 138 156 158 152 151 143 126 134 159 162 153 145 154 200
189 175 182 196 188 174 172 176 169 175 175 174 176 175 162 136 137 127 145 155 160 158 150 150 153 150 167 170 172 162 148 172
188 186 194 176 190 175 171 171 174 173 173 181 181 174 162 138 136 141 143 138 167 160 151 157 163 171 183 174 175 164 156 168
206 195 164 170 170 178 174 173 181 174 176 184 184 170 153 145 161 157 160 143 156 158 155 161 169 178 183 174 179 169 178 167
197 166 169 172 177 177 183 176 182 173 178 186 189 177 168 162 166 173 166 159 169 157 160 164 173 185 199 182 188 192 187 188
196 183 178 178 178 176 181 178 175 170 178 183 193 175 173 168 166 173 189 188 173 159 166 170 177 180 198 186 190 197 186 189
225 194 184 174 181 182 178 173 176 176 184 172 184 193 176 178 165 174 197 173 164 160 168 172 179 186 193 190 191 190 175 189
228 197 171 171 173 179 170 173 181 167 173 184 180 196 169 165 167 176 177 173 173 159 172 171 176 185 189 187 196 207 204 206
94 104 121 143 156 169 160 170 175 168 168 173 180 187 179 166 171 168 171 170 176 176 177 181 188 186 189 191 204 200 203 214
41 76 104 113 138 147 148 149 168 161 162 168 184 192 175 178 174 170 176 180 184 188 182 187 192 196 197 203 207 206 207 212
42 48 65 85 107 116 127 141 153 163 166 174 180 183 172 186 180 181 181 182 182 190 195 198 198 202 205 207 209 211 211 213
38 43 44 47 51 60 66 55 147 161 159 170 173 182 187 190 189 178 187 195 200 202 204 205 206 204 210 212 216 223 224 222
32 33 40 38 41 35 40 40 35 145 157 175 193 198 183 202 204 202 192 196 213 221 218 217 216 215 210 211 216 220 225 230
43 36 41 37 39 24 27 29 33 53 57 55 45 43 44 352 268 224 219 221 218 220 221 223 224 225 219 212 213 216 220 225
39 34 33 35 38 15 17 25 39 42 53 47 40 37 39 28 20 28 30 1 285 233 229 226 232 234 224 222 218 231 230 226
38 36 33 42 38 12 11 35 43 36 43 38 32 31 34 27 23 16 9 3 1 350 349 313 266 247 350 265 219 225 233 236